Regional Weather Roundup
Issued by NWS

Home | Current Version | Previous Version | Graphics & Text | Print | Product List | Glossary Off
Versions: 1 2 3 4 5 6 7 8 9 10 11 12 13 14 15 16 17 18 19 20 21 22 23 24 25 26 27 28 29 30 31 32 33 34 35 36 37 38 39 40 41 42 43 44 45 46 47 48 49 50

000
ASUS43 KTOP 281508
RWRKS

WEATHER ROUNDUP FOR KANSAS
NATIONAL WEATHER SERVICE GOODLAND KS
1000 AM CDT WED SEP 28 2016

NOTE:  "FAIR" INDICATES FEW OR NO CLOUDS BELOW 12,000 FEET WITH NO
SIGNIFICANT WEATHER AND/OR OBSTRUCTIONS TO VISIBILITY.

KSZ001>006-013>018-027>032-041>047-281600-
NORTHWEST KANSAS

CITY           SKY/WX    TMP DP  RH WIND       PRES   REMARKS
GOODLAND       SUNNY     64  42  44 W7        30.24R
HAYS           SUNNY     64  43  45 NE13      30.17R
HILL CITY      SUNNY     64  46  52 NE8       30.20R
RUSSELL        SUNNY     62  47  57 NE16      30.14R
$$

KSZ061>065-074>080-084>089-281600-
SOUTHWEST KANSAS

CITY           SKY/WX    TMP DP  RH WIND       PRES   REMARKS
DODGE CITY     SUNNY     74  44  34 NE12      30.15R
ELKHART          N/A     66  38  35 NW9         N/A
GARDEN CITY    SUNNY     73  41  31 NE9       30.17R
GREAT BEND     SUNNY     64  46  52 N10       30.15R
LIBERAL        SUNNY     68  43  40 N10       30.18R
PRATT          SUNNY     66  46  47 NE13      30.12R
$$

KSZ066>073-081>083-090>101-281600-
SOUTHEAST KANSAS

CITY           SKY/WX    TMP DP  RH WIND       PRES   REMARKS
CHANUTE        SUNNY     68  52  56 N12       30.02R
COFFEYVILLE    SUNNY     69  57  65 N14       30.00R
HUTCHINSON     SUNNY     66  49  54 N13       30.11R
MEDICINE LODGE   N/A     70  51  51 N15       30.08R
NEWTON         SUNNY     65  48  54 MISG      30.09R
PARSONS        SUNNY     69  53  56 N12G20    30.02R
WICHITA INTL   SUNNY     68  53  58 N14       30.07R
WICHITA JABRA  LGT RAIN  67  52  58 N14G22    30.07R
WICHITA MCCONL SUNNY     68  51  53 N16       30.08R
WINFIELD       SUNNY     69  54  58 NE15      30.05R
$$

KSZ007>012-019>026-033>040-048>060-102>105-281600-
NORTHEAST KANSAS

CITY           SKY/WX    TMP DP  RH WIND       PRES   REMARKS
CONCORDIA      SUNNY     61  43  51 N12       30.15R
EMPORIA        SUNNY     64  47  53 N10       30.07R
LAWRENCE       SUNNY     61  46  57 N16G23    30.06R
MANHATTAN      SUNNY     62  44  51 NE12      30.11R
MARYSVILLE     SUNNY     57  45  62 N12       30.14R
OLATHE IND     SUNNY     61  45  55 N16       30.05R
OLATHE EXE     SUNNY     62  43  49 N12       30.05R
SALINA         SUNNY     65  42  43 N9        30.13R
TOPEKA BILLARD SUNNY     60  46  59 N13G24    30.08R
TOPEKA FORBES  SUNNY     63  46  54 N16G24    30.07R
$$




USA.gov is the U.S. government's official web portal to all federal, state and local government web resources and services.